Time,TemperatureF,DewpointF,PressureIn,WindDirection,WindDirectionDegrees,WindSpeedMPH,WindSpeedGustMPH,Humidity,HourlyPrecipIn,Conditions,Clouds,dailyrainin,SoftwareType,DateUTC
2013-07-10 00:04:00,66.6,64.5,29.94,ESE,115,0.0,0.0,93,0.00,,,0.00,Wunderground v.1.15,2013-07-10 07:04:00,
2013-07-10 00:14:00,66.8,64.7,29.94,ESE,103,0.0,0.0,93,0.00,,,0.00,Wunderground v.1.15,2013-07-10 07:14:00,
2013-07-10 00:24:00,66.9,64.8,29.94,SE,134,0.0,0.0,93,0.00,,,0.00,Wunderground v.1.15,2013-07-10 07:24:00,
2013-07-10 00:34:00,67.1,65.0,29.94,ESE,121,0.0,1.0,93,0.00,,,0.00,Wunderground v.1.15,2013-07-10 07:34:00,
2013-07-10 00:44:00,67.1,65.0,29.94,South,175,1.0,1.0,93,0.00,,,0.00,Wunderground v.1.15,2013-07-10 07:44:00,
2013-07-10 00:54:00,67.1,65.0,29.94,SSW,196,0.0,0.0,93,0.00,,,0.00,Wunderground v.1.15,2013-07-10 07:54:00,
2013-07-10 01:04:00,66.9,64.8,29.94,South,187,1.0,1.0,93,0.00,,,0.00,Wunderground v.1.15,2013-07-10 08:04:00,
2013-07-10 01:14:00,66.8,65.0,29.94,South,190,1.0,1.0,94,0.00,,,0.00,Wunderground v.1.15,2013-07-10 08:14:00,
2013-07-10 01:24:00,66.9,65.1,29.94,SSW,205,0.0,0.0,94,0.00,,,0.00,Wunderground v.1.15,2013-07-10 08:24:00,
2013-07-10 01:34:00,66.8,65.0,29.94,SSW,200,0.0,0.0,94,0.00,,,0.00,Wunderground v.1.15,2013-07-10 08:34:00,
2013-07-10 01:44:00,66.8,65.0,29.93,SSW,197,0.0,0.0,94,0.00,,,0.00,Wunderground v.1.15,2013-07-10 08:44:00,
2013-07-10 01:54:00,66.9,65.1,29.93,SSW,194,0.0,0.0,94,0.00,,,0.00,Wunderground v.1.15,2013-07-10 08:54:00,
2013-07-10 02:04:00,67.0,64.9,29.93,South,186,0.0,0.0,93,0.00,,,0.00,Wunderground v.1.15,2013-07-10 09:04:00,
2013-07-10 02:14:00,67.0,64.9,29.93,SSW,204,0.0,0.0,93,0.00,,,0.00,Wunderground v.1.15,2013-07-10 09:14:00,
2013-07-10 02:24:00,67.0,64.9,29.93,South,174,0.0,0.0,93,0.00,,,0.00,Wunderground v.1.15,2013-07-10 09:24:00,
2013-07-10 02:34:00,66.9,64.8,29.92,ESE,121,0.0,0.0,93,0.00,,,0.00,Wunderground v.1.15,2013-07-10 09:34:00,
2013-07-10 02:44:00,66.9,64.8,29.92,South,186,0.0,0.0,93,0.00,,,0.00,Wunderground v.1.15,2013-07-10 09:44:00,
2013-07-10 02:54:00,66.8,64.7,29.92,South,186,0.0,0.0,93,0.00,,,0.00,Wunderground v.1.15,2013-07-10 09:54:00,
2013-07-10 03:04:00,66.7,64.6,29.91,South,186,0.0,0.0,93,0.00,,,0.00,Wunderground v.1.15,2013-07-10 10:04:00,
2013-07-10 03:14:00,66.7,64.6,29.91,South,186,0.0,0.0,93,0.00,,,0.00,Wunderground v.1.15,2013-07-10 10:14:00,
2013-07-10 03:23:00,66.7,64.6,29.92,South,186,0.0,0.0,93,0.00,,,0.00,Wunderground v.1.15,2013-07-10 10:23:00,
2013-07-10 03:34:00,66.7,64.6,29.92,South,186,0.0,0.0,93,0.00,,,0.00,Wunderground v.1.15,2013-07-10 10:34:00,
2013-07-10 03:44:00,66.7,64.6,29.91,South,186,0.0,0.0,93,0.00,,,0.00,Wunderground v.1.15,2013-07-10 10:44:00,
2013-07-10 03:54:00,66.8,64.7,29.90,NNW,335,0.0,0.0,93,0.00,,,0.00,Wunderground v.1.15,2013-07-10 10:54:00,
2013-07-10 04:04:00,66.8,64.7,29.91,NNW,335,0.0,0.0,93,0.00,,,0.00,Wunderground v.1.15,2013-07-10 11:04:00,
2013-07-10 04:14:00,66.8,64.7,29.91,NNW,335,0.0,0.0,93,0.00,,,0.00,Wunderground v.1.15,2013-07-10 11:14:00,
2013-07-10 04:24:00,66.8,64.7,29.92,NNW,335,0.0,0.0,93,0.00,,,0.00,Wunderground v.1.15,2013-07-10 11:24:00,
2013-07-10 04:34:00,66.8,64.7,29.92,South,171,0.0,0.0,93,0.00,,,0.00,Wunderground v.1.15,2013-07-10 11:34:00,
2013-07-10 04:44:00,66.8,64.7,29.93,South,185,0.0,0.0,93,0.00,,,0.00,Wunderground v.1.15,2013-07-10 11:44:00,
2013-07-10 04:54:00,66.9,64.8,29.93,South,188,1.0,1.0,93,0.00,,,0.00,Wunderground v.1.15,2013-07-10 11:54:00,
2013-07-10 05:04:00,67.0,64.9,29.93,SSW,200,1.0,1.0,93,0.00,,,0.00,Wunderground v.1.15,2013-07-10 12:04:00,
2013-07-10 05:14:00,66.9,64.8,29.92,South,182,0.0,0.0,93,0.00,,,0.00,Wunderground v.1.15,2013-07-10 12:14:00,
2013-07-10 05:24:00,66.8,64.7,29.91,South,188,0.0,0.0,93,0.00,,,0.00,Wunderground v.1.15,2013-07-10 12:24:00,
2013-07-10 05:34:00,66.8,64.7,29.92,South,171,0.0,0.0,93,0.00,,,0.00,Wunderground v.1.15,2013-07-10 12:34:00,
2013-07-10 05:44:00,66.8,64.7,29.92,South,171,0.0,0.0,93,0.00,,,0.00,Wunderground v.1.15,2013-07-10 12:44:00,
2013-07-10 05:54:00,66.7,64.6,29.93,South,171,0.0,0.0,93,0.00,,,0.00,Wunderground v.1.15,2013-07-10 12:54:00,
2013-07-10 06:04:00,66.8,65.0,29.93,SSE,161,0.0,0.0,94,0.00,,,0.00,Wunderground v.1.15,2013-07-10 13:04:00,
2013-07-10 06:14:00,66.8,65.0,29.93,South,175,0.0,0.0,94,0.00,,,0.00,Wunderground v.1.15,2013-07-10 13:14:00,
2013-07-10 06:24:00,66.9,65.1,29.92,South,175,0.0,0.0,94,0.00,,,0.00,Wunderground v.1.15,2013-07-10 13:24:00,
2013-07-10 06:34:00,67.0,65.2,29.92,SW,219,0.0,0.0,94,0.00,,,0.00,Wunderground v.1.15,2013-07-10 13:34:00,
2013-07-10 06:44:00,67.1,65.3,29.92,SW,219,0.0,0.0,94,0.00,,,0.00,Wunderground v.1.15,2013-07-10 13:44:00,
2013-07-10 06:54:00,67.2,65.4,29.93,SW,219,0.0,0.0,94,0.00,,,0.00,Wunderground v.1.15,2013-07-10 13:54:00,
2013-07-10 07:04:00,67.4,65.6,29.93,SSW,200,0.0,0.0,94,0.00,,,0.00,Wunderground v.1.15,2013-07-10 14:04:00,
2013-07-10 07:14:00,67.6,65.5,29.94,SSW,200,0.0,0.0,93,0.00,,,0.00,Wunderground v.1.15,2013-07-10 14:14:00,
2013-07-10 07:24:00,67.8,65.7,29.94,SE,130,0.0,0.0,93,0.00,,,0.00,Wunderground v.1.15,2013-07-10 14:24:00,
2013-07-10 07:34:00,68.0,65.6,29.94,SE,130,0.0,0.0,92,0.00,,,0.00,Wunderground v.1.15,2013-07-10 14:34:00,
2013-07-10 07:44:00,68.1,65.7,29.93,SE,130,0.0,0.0,92,0.00,,,0.00,Wunderground v.1.15,2013-07-10 14:44:00,
2013-07-10 07:54:00,68.5,66.1,29.93,SE,130,0.0,0.0,92,0.00,,,0.00,Wunderground v.1.15,2013-07-10 14:54:00,
2013-07-10 08:04:00,68.8,66.1,29.92,SE,131,0.0,0.0,91,0.00,,,0.00,Wunderground v.1.15,2013-07-10 15:04:00,
2013-07-10 08:14:00,68.9,65.8,29.93,South,173,0.0,0.0,90,0.00,,,0.00,Wunderground v.1.15,2013-07-10 15:14:00,
2013-07-10 08:24:00,69.1,66.0,29.94,South,187,0.0,0.0,90,0.00,,,0.00,Wunderground v.1.15,2013-07-10 15:24:00,
2013-07-10 08:34:00,69.5,66.4,29.94,SSW,192,0.0,0.0,90,0.00,,,0.00,Wunderground v.1.15,2013-07-10 15:34:00,
2013-07-10 08:44:00,69.9,66.5,29.94,South,184,0.0,0.0,89,0.00,,,0.00,Wunderground v.1.15,2013-07-10 15:44:00,
2013-07-10 08:53:00,69.9,66.5,29.94,South,183,1.0,1.0,89,0.00,,,0.00,Wunderground v.1.15,2013-07-10 15:53:00,
2013-07-10 09:04:00,69.9,66.2,29.94,SW,226,0.0,0.0,88,0.00,,,0.00,Wunderground v.1.15,2013-07-10 16:04:00,
2013-07-10 09:14:00,69.8,66.4,29.94,SW,214,0.0,0.0,89,0.00,,,0.00,Wunderground v.1.15,2013-07-10 16:14:00,
2013-07-10 09:24:00,70.2,66.5,29.94,South,186,1.0,1.0,88,0.00,,,0.00,Wunderground v.1.15,2013-07-10 16:24:00,
2013-07-10 09:34:00,70.0,66.3,29.95,South,184,2.0,5.0,88,0.00,,,0.00,Wunderground v.1.15,2013-07-10 16:34:00,
2013-07-10 09:44:00,69.5,66.1,29.95,SSW,198,3.0,6.0,89,0.00,,,0.00,Wunderground v.1.15,2013-07-10 16:44:00,
2013-07-10 09:54:00,69.4,66.3,29.96,SSW,196,2.0,2.0,90,0.00,,,0.00,Wunderground v.1.15,2013-07-10 16:54:00,
2013-07-10 10:04:00,70.2,66.8,29.96,SSW,194,0.0,0.0,89,0.00,,,0.00,Wunderground v.1.15,2013-07-10 17:04:00,
2013-07-10 10:14:00,70.9,67.2,29.95,SW,229,1.0,6.0,88,0.00,,,0.00,Wunderground v.1.15,2013-07-10 17:14:00,
2013-07-10 10:24:00,70.9,66.8,29.95,SW,219,3.0,3.0,87,0.00,,,0.00,Wunderground v.1.15,2013-07-10 17:24:00,
2013-07-10 10:34:00,71.4,67.0,29.95,SW,230,1.0,1.0,86,0.00,,,0.00,Wunderground v.1.15,2013-07-10 17:34:00,
2013-07-10 10:44:00,72.4,67.3,29.95,South,188,1.0,6.0,84,0.00,,,0.00,Wunderground v.1.15,2013-07-10 17:44:00,
2013-07-10 10:54:00,71.8,66.7,29.95,SW,216,1.0,1.0,84,0.00,,,0.00,Wunderground v.1.15,2013-07-10 17:54:00,
2013-07-10 11:04:00,71.2,66.8,29.95,SSW,208,1.0,1.0,86,0.00,,,0.00,Wunderground v.1.15,2013-07-10 18:04:00,
2013-07-10 11:14:00,71.0,66.6,29.95,SSW,209,0.0,0.0,86,0.00,,,0.00,Wunderground v.1.15,2013-07-10 18:14:00,
2013-07-10 11:24:00,70.8,66.7,29.95,SSW,195,1.0,1.0,87,0.00,,,0.00,Wunderground v.1.15,2013-07-10 18:24:00,
2013-07-10 11:34:00,70.7,66.6,29.95,SSW,213,1.0,1.0,87,0.00,,,0.00,Wunderground v.1.15,2013-07-10 18:34:00,
2013-07-10 11:44:00,70.3,66.6,29.95,SSE,163,2.0,2.0,88,0.00,,,0.00,Wunderground v.1.15,2013-07-10 18:44:00,
2013-07-10 11:54:00,69.7,66.0,29.95,SSW,202,2.0,5.0,88,0.00,,,0.00,Wunderground v.1.15,2013-07-10 18:54:00,
2013-07-10 12:04:00,69.3,65.9,29.96,SSW,198,2.0,5.0,89,0.00,,,0.00,Wunderground v.1.15,2013-07-10 19:04:00,
2013-07-10 12:14:00,69.2,65.8,29.96,SW,225,2.0,2.0,89,0.00,,,0.00,Wunderground v.1.15,2013-07-10 19:14:00,
2013-07-10 12:24:00,69.2,65.8,29.96,SW,217,1.0,1.0,89,0.00,,,0.00,Wunderground v.1.15,2013-07-10 19:24:00,
2013-07-10 12:34:00,69.1,65.7,29.96,South,185,1.0,4.0,89,0.00,,,0.00,Wunderground v.1.15,2013-07-10 19:34:00,
2013-07-10 12:44:00,68.7,65.6,29.96,SSW,198,1.0,1.0,90,0.00,,,0.00,Wunderground v.1.15,2013-07-10 19:44:00,
2013-07-10 12:54:00,68.8,66.4,29.96,South,183,0.0,0.0,92,0.00,,,0.00,Wunderground v.1.15,2013-07-10 19:54:00,
2013-07-10 13:04:00,68.5,66.1,29.95,SW,222,1.0,1.0,92,0.00,,,0.00,Wunderground v.1.15,2013-07-10 20:04:00,
2013-07-10 13:14:00,68.5,66.1,29.95,South,186,1.0,3.0,92,0.00,,,0.00,Wunderground v.1.15,2013-07-10 20:14:00,
2013-07-10 13:24:00,68.6,65.9,29.96,SSW,204,1.0,1.0,91,0.00,,,0.00,Wunderground v.1.15,2013-07-10 20:24:00,
2013-07-10 13:34:00,69.2,66.5,29.95,SW,230,1.0,1.0,91,0.00,,,0.00,Wunderground v.1.15,2013-07-10 20:34:00,
2013-07-10 13:44:00,70.1,66.7,29.95,South,173,1.0,1.0,89,0.00,,,0.00,Wunderground v.1.15,2013-07-10 20:44:00,
2013-07-10 13:54:00,70.5,66.4,29.95,SW,221,2.0,2.0,87,0.00,,,0.00,Wunderground v.1.15,2013-07-10 20:54:00,
2013-07-10 14:03:00,71.3,66.9,29.95,SSW,200,0.0,0.0,86,0.00,,,0.00,Wunderground v.1.15,2013-07-10 21:03:00,
2013-07-10 14:14:00,71.8,67.0,29.94,South,189,3.0,6.0,85,0.00,,,0.00,Wunderground v.1.15,2013-07-10 21:14:00,
2013-07-10 14:24:00,72.2,67.1,29.94,SSE,153,0.0,0.0,84,0.00,,,0.00,Wunderground v.1.15,2013-07-10 21:24:00,
2013-07-10 14:34:00,72.1,67.0,29.94,South,191,0.0,0.0,84,0.00,,,0.00,Wunderground v.1.15,2013-07-10 21:34:00,
2013-07-10 14:44:00,71.9,66.8,29.93,SW,223,0.0,0.0,84,0.00,,,0.00,Wunderground v.1.15,2013-07-10 21:44:00,
2013-07-10 14:54:00,71.1,66.4,29.93,South,181,1.0,1.0,85,0.00,,,0.00,Wunderground v.1.15,2013-07-10 21:54:00,
2013-07-10 15:04:00,70.6,66.5,29.93,South,173,1.0,1.0,87,0.00,,,0.00,Wunderground v.1.15,2013-07-10 22:04:00,
2013-07-10 15:14:00,70.8,66.4,29.92,SSW,192,0.0,0.0,86,0.00,,,0.00,Wunderground v.1.15,2013-07-10 22:14:00,
2013-07-10 15:24:00,71.5,66.8,29.92,South,182,0.0,0.0,85,0.00,,,0.00,Wunderground v.1.15,2013-07-10 22:24:00,
2013-07-10 15:34:00,70.8,66.1,29.92,SSW,207,1.0,1.0,85,0.00,,,0.00,Wunderground v.1.15,2013-07-10 22:34:00,
2013-07-10 15:44:00,70.2,66.1,29.92,SSW,194,1.0,1.0,87,0.00,,,0.00,Wunderground v.1.15,2013-07-10 22:44:00,
2013-07-10 15:54:00,69.8,66.1,29.92,South,190,1.0,1.0,88,0.00,,,0.00,Wunderground v.1.15,2013-07-10 22:54:00,
2013-07-10 16:04:00,69.3,65.9,29.92,South,191,2.0,2.0,89,0.00,,,0.00,Wunderground v.1.15,2013-07-10 23:04:00,
2013-07-10 16:14:00,69.3,65.9,29.91,South,182,0.0,0.0,89,0.00,,,0.00,Wunderground v.1.15,2013-07-10 23:14:00,
2013-07-10 16:24:00,69.3,65.9,29.91,SW,220,0.0,0.0,89,0.00,,,0.00,Wunderground v.1.15,2013-07-10 23:24:00,
2013-07-10 16:34:00,69.1,65.7,29.91,SSW,192,2.0,2.0,89,0.00,,,0.00,Wunderground v.1.15,2013-07-10 23:34:00,
2013-07-10 16:44:00,69.1,65.7,29.90,South,171,2.0,5.0,89,0.00,,,0.00,Wunderground v.1.15,2013-07-10 23:44:00,
2013-07-10 16:54:00,69.3,65.9,29.90,SE,133,0.0,0.0,89,0.00,,,0.00,Wunderground v.1.15,2013-07-10 23:54:00,
2013-07-10 17:04:00,69.0,65.6,29.90,SW,215,1.0,1.0,89,0.00,,,0.00,Wunderground v.1.15,2013-07-11 00:04:00,
2013-07-10 17:14:00,68.8,65.4,29.89,South,190,1.0,1.0,89,0.00,,,0.00,Wunderground v.1.15,2013-07-11 00:14:00,
2013-07-10 17:24:00,68.7,65.3,29.89,South,178,1.0,5.0,89,0.00,,,0.00,Wunderground v.1.15,2013-07-11 00:24:00,
2013-07-10 17:34:00,68.6,65.2,29.89,SSW,209,0.0,0.0,89,0.00,,,0.00,Wunderground v.1.15,2013-07-11 00:34:00,
2013-07-10 17:44:00,68.5,65.4,29.89,SSW,194,0.0,0.0,90,0.00,,,0.00,Wunderground v.1.15,2013-07-11 00:44:00,
2013-07-10 17:54:00,68.4,65.4,29.89,South,182,0.0,0.0,90,0.00,,,0.00,Wunderground v.1.15,2013-07-11 00:54:00,
2013-07-10 18:04:00,68.2,65.2,29.88,SSW,208,0.0,0.0,90,0.00,,,0.00,Wunderground v.1.15,2013-07-11 01:04:00,
2013-07-10 18:14:00,68.1,65.1,29.89,SW,226,0.0,0.0,90,0.00,,,0.00,Wunderground v.1.15,2013-07-11 01:14:00,
2013-07-10 18:24:00,68.2,65.2,29.89,WSW,242,0.0,0.0,90,0.00,,,0.00,Wunderground v.1.15,2013-07-11 01:24:00,
2013-07-10 18:34:00,68.2,65.2,29.88,SW,236,0.0,0.0,90,0.00,,,0.00,Wunderground v.1.15,2013-07-11 01:34:00,
2013-07-10 18:44:00,68.2,65.2,29.88,SW,236,0.0,0.0,90,0.00,,,0.00,Wunderground v.1.15,2013-07-11 01:44:00,
2013-07-10 18:54:00,68.0,65.0,29.88,SW,228,0.0,0.0,90,0.00,,,0.00,Wunderground v.1.15,2013-07-11 01:54:00,
2013-07-10 19:04:00,67.9,65.2,29.88,WSW,252,0.0,0.0,91,0.00,,,0.00,Wunderground v.1.15,2013-07-11 02:04:00,
2013-07-10 19:14:00,67.8,65.1,29.88,WSW,251,0.0,0.0,91,0.00,,,0.00,Wunderground v.1.15,2013-07-11 02:14:00,
2013-07-10 19:24:00,67.7,65.0,29.88,SE,129,0.0,0.0,91,0.00,,,0.00,Wunderground v.1.15,2013-07-11 02:24:00,
2013-07-10 19:34:00,67.6,64.9,29.88,SE,129,0.0,0.0,91,0.00,,,0.00,Wunderground v.1.15,2013-07-11 02:34:00,
2013-07-10 19:44:00,67.5,64.8,29.88,WSW,241,0.0,0.0,91,0.00,,,0.00,Wunderground v.1.15,2013-07-11 02:44:00,
2013-07-10 19:54:00,67.5,64.8,29.88,WSW,241,0.0,0.0,91,0.00,,,0.00,Wunderground v.1.15,2013-07-11 02:54:00,
2013-07-10 20:04:00,67.4,64.7,29.88,West,279,0.0,0.0,91,0.00,,,0.00,Wunderground v.1.15,2013-07-11 03:04:00,
2013-07-10 20:14:00,67.4,64.7,29.88,South,190,0.0,0.0,91,0.00,,,0.00,Wunderground v.1.15,2013-07-11 03:14:00,
2013-07-10 20:24:00,67.4,64.7,29.89,SSW,198,0.0,0.0,91,0.00,,,0.00,Wunderground v.1.15,2013-07-11 03:24:00,
2013-07-10 20:34:00,67.3,64.6,29.89,South,176,0.0,0.0,91,0.00,,,0.00,Wunderground v.1.15,2013-07-11 03:34:00,
2013-07-10 20:44:00,67.2,64.5,29.89,South,177,0.0,0.0,91,0.00,,,0.00,Wunderground v.1.15,2013-07-11 03:44:00,
2013-07-10 20:54:00,67.2,64.5,29.90,South,177,0.0,0.0,91,0.00,,,0.00,Wunderground v.1.15,2013-07-11 03:54:00,
2013-07-10 21:04:00,67.1,64.4,29.89,ESE,107,0.0,0.0,91,0.00,,,0.00,Wunderground v.1.15,2013-07-11 04:04:00,
2013-07-10 21:14:00,67.1,64.7,29.89,ESE,107,0.0,0.0,92,0.00,,,0.00,Wunderground v.1.15,2013-07-11 04:14:00,
2013-07-10 21:24:00,67.0,64.6,29.90,ESE,107,0.0,0.0,92,0.00,,,0.00,Wunderground v.1.15,2013-07-11 04:24:00,
2013-07-10 21:34:00,66.9,64.5,29.90,ESE,107,0.0,0.0,92,0.00,,,0.00,Wunderground v.1.15,2013-07-11 04:34:00,
2013-07-10 21:44:00,66.9,64.5,29.90,ESE,107,0.0,0.0,92,0.00,,,0.00,Wunderground v.1.15,2013-07-11 04:44:00,
2013-07-10 21:54:00,66.8,64.4,29.90,ESE,107,0.0,0.0,92,0.00,,,0.00,Wunderground v.1.15,2013-07-11 04:54:00,
2013-07-10 22:04:00,66.8,64.4,29.90,South,186,0.0,0.0,92,0.00,,,0.00,Wunderground v.1.15,2013-07-11 05:04:00,
2013-07-10 22:14:00,66.8,64.4,29.90,South,186,0.0,0.0,92,0.00,,,0.00,Wunderground v.1.15,2013-07-11 05:14:00,
2013-07-10 22:24:00,66.7,64.3,29.90,South,186,0.0,0.0,92,0.00,,,0.00,Wunderground v.1.15,2013-07-11 05:24:00,
2013-07-10 22:34:00,66.7,64.3,29.90,South,186,0.0,0.0,92,0.00,,,0.00,Wunderground v.1.15,2013-07-11 05:34:00,
2013-07-10 22:44:00,66.8,64.4,29.90,South,186,0.0,0.0,92,0.00,,,0.00,Wunderground v.1.15,2013-07-11 05:44:00,
2013-07-10 22:54:00,66.8,64.4,29.90,South,186,0.0,0.0,92,0.00,,,0.00,Wunderground v.1.15,2013-07-11 05:54:00,
2013-07-10 23:04:00,66.8,64.4,29.90,South,186,0.0,0.0,92,0.00,,,0.00,Wunderground v.1.15,2013-07-11 06:04:00,
2013-07-10 23:14:00,66.8,64.4,29.91,SSE,163,0.0,0.0,92,0.00,,,0.00,Wunderground v.1.15,2013-07-11 06:14:00,
2013-07-10 23:24:00,66.9,64.5,29.90,SE,131,0.0,0.0,92,0.00,,,0.00,Wunderground v.1.15,2013-07-11 06:24:00,
2013-07-10 23:34:00,66.9,64.5,29.91,South,169,0.0,0.0,92,0.00,,,0.00,Wunderground v.1.15,2013-07-11 06:34:00,
2013-07-10 23:44:00,67.0,64.6,29.91,South,186,0.0,0.0,92,0.00,,,0.00,Wunderground v.1.15,2013-07-11 06:44:00,
2013-07-10 23:54:00,67.0,64.6,29.91,SSE,160,0.0,0.0,92,0.00,,,0.00,Wunderground v.1.15,2013-07-11 06:54:00,